| time (UTC) | temp C | wind direction | speed KPH | gust KPH | rain 1hr cm | rain 24hr cm | rain mn cm | humidity % | barometer mb |
| 20260504173022 | 25 | 81 | 3.2 | 12.9 | 0.00 | 0.00 | 0.00 | 43 | 1017.1 |
| 20260504171507 | 25 | 274 | 4.8 | 8.0 | 0.00 | 0.00 | 0.00 | 42 | 1017.2 |
| 20260504081527 | 11 | 278 | 0.0 | 0.0 | 0.00 | 0.00 | 0.00 | 90 | 1017.4 |
| 20260504044525 | 12 | 127 | 0.0 | 0.0 | 0.00 | 0.00 | 0.00 | 88 | 1018.7 |
| 20260504043033 | 12 | 127 | 0.0 | 0.0 | 0.00 | 0.00 | 0.00 | 87 | 1018.9 |
| 20260504041517 | 12 | 127 | 0.0 | 0.0 | 0.00 | 0.00 | 0.00 | 87 | 1018.8 |
| 20260504040021 | 12 | 127 | 0.0 | 0.0 | 0.00 | 0.00 | 0.00 | 86 | 1018.7 |
| 20260504034526 | 13 | 127 | 0.0 | 0.0 | 0.00 | 0.00 | 0.00 | 85 | 1018.8 |
| 20260504033028 | 13 | 127 | 0.0 | 0.0 | 0.00 | 0.00 | 0.00 | 85 | 1019.0 |
| 20260504031516 | 13 | 127 | 0.0 | 4.8 | 0.00 | 0.00 | 0.00 | 84 | 1019.1 |
| 20260504030003 | 13 | 120 | 0.0 | 0.0 | 0.00 | 0.00 | 0.00 | 83 | 1018.7 |
| 20260504024525 | 13 | 120 | 0.0 | 0.0 | 0.00 | 0.00 | 0.00 | 82 | 1018.6 |
| 20260504023012 | 14 | 120 | 0.0 | 0.0 | 0.00 | 0.00 | 0.00 | 80 | 1018.7 |
| 20260504021537 | 15 | 120 | 0.0 | 0.0 | 0.00 | 0.00 | 0.00 | 78 | 1018.5 |
| 20260504020032 | 15 | 120 | 0.0 | 0.0 | 0.00 | 0.00 | 0.00 | 78 | 1018.4 |
| 20260504014506 | 15 | 120 | 0.0 | 0.0 | 0.00 | 0.00 | 0.00 | 74 | 1018.3 |
| 20260504013006 | 16 | 120 | 0.0 | 0.0 | 0.00 | 0.00 | 0.00 | 71 | 1018.1 |
| 20260504011510 | 17 | 120 | 0.0 | 0.0 | 0.00 | 0.00 | 0.00 | 66 | 1018.0 |
| 20260504010018 | 17 | 120 | 0.0 | 0.0 | 0.00 | 0.00 | 0.00 | 62 | 1018.0 |
| 20260504004536 | 18 | 120 | 0.0 | 0.0 | 0.00 | 0.00 | 0.00 | 59 | 1017.9 |
| 20260504003005 | 20 | 120 | 0.0 | 1.6 | 0.00 | 0.00 | 0.00 | 55 | 1017.8 |
| 20260504001534 | 21 | 120 | 0.0 | 0.0 | 0.00 | 0.00 | 0.00 | 51 | 1017.8 |
| 20260504000016 | 23 | 120 | 0.0 | 1.6 | 0.00 | 0.00 | 0.00 | 47 | 1017.8 |
| 20260503213031 | 25 | 306 | 0.0 | 6.4 | 0.00 | 0.00 | 0.00 | 38 | 1018.5 |
| 20260503211523 | 25 | 36 | 1.6 | 9.7 | 0.00 | 0.00 | 0.00 | 39 | 1018.7 |
| 20260503210024 | 24 | 176 | 3.2 | 8.0 | 0.00 | 0.00 | 0.00 | 39 | 1018.9 |
| 20260503204524 | 24 | 316 | 0.0 | 8.0 | 0.00 | 0.00 | 0.00 | 32 | 1019.2 |
| 20260503203020 | 23 | 81 | 1.6 | 12.9 | 0.00 | 0.00 | 0.00 | 32 | 1019.3 |
| 20260503201522 | 24 | 93 | 1.6 | 8.0 | 0.00 | 0.00 | 0.00 | 34 | 1019.5 |
| 20260503200028 | 24 | 81 | 3.2 | 9.7 | 0.00 | 0.00 | 0.00 | 34 | 1019.7 |
| 20260503194512 | 25 | 240 | 1.6 | 14.5 | 0.00 | 0.00 | 0.00 | 34 | 1019.9 |
| 20260503193014 | 25 | 279 | 4.8 | 9.7 | 0.00 | 0.00 | 0.00 | 32 | 1020.2 |
| 20260503191520 | 23 | 172 | 0.0 | 6.4 | 0.00 | 0.00 | 0.00 | 39 | 1020.4 |
| 20260503190036 | 23 | 69 | 3.2 | 9.7 | 0.00 | 0.00 | 0.00 | 37 | 1020.7 |
| 20260503184527 | 23 | 77 | 3.2 | 8.0 | 0.00 | 0.00 | 0.00 | 36 | 1020.8 |
| 20260503183015 | 23 | 228 | 1.6 | 11.3 | 0.00 | 0.00 | 0.00 | 34 | 1021.0 |
| 20260503181510 | 23 | 120 | 1.6 | 12.9 | 0.00 | 0.00 | 0.00 | 36 | 1021.1 |
| 20260503180013 | 23 | 25 | 4.8 | 14.5 | 0.00 | 0.00 | 0.00 | 37 | 1021.4 |
| 20260503174507 | 23 | 241 | 1.6 | 9.7 | 0.00 | 0.00 | 0.00 | 36 | 1021.5 |